Last 24 Hours

Red Mountain

10 Minute Data | America/Los_Angeles
as of 9/6/26 8:21 AM PDT
Date & Time Temp (°F) Dew Pt (°F) RH (%) Wind Spd (mph) Wind Dir (°) Wind Gust (mph) Wind Gst Dir (°) Daily Max Temp (°F) Daily Min Temp (°F)
9/6/26 - 0740 66.7 58.3 74 6.5 WNW | 301 7.1 WNW | 295 68.9 63.5
9/6/26 - 0730 66.4 58.0 74 5.9 WNW | 296 6.7 WNW | 300 68.9 63.5
9/6/26 - 0720 66.7 57.7 73 7.2 WNW | 291 8.9 WNW | 286 68.9 63.5
9/6/26 - 0710 67.6 57.5 70 7.4 W | 263 8.2 W | 259 68.9 63.5
9/6/26 - 0700 67.6 57.3 69 5.8 W | 264 6.9 WSW | 258 68.9 63.5
9/6/26 - 0650 66.6 57.6 73 4.5 WSW | 254 5.7 WSW | 240 68.9 63.5
9/6/26 - 0640 66.7 57.4 72 5.1 W | 261 6.0 W | 264 68.9 63.5
9/6/26 - 0630 67.1 57.3 71 7.6 WSW | 256 11.8 W | 259 68.9 63.5
9/6/26 - 0620 68.6 56.6 66 7.8 W | 267 12.1 W | 259 68.9 63.5
9/6/26 - 0610 68.2 56.6 67 3.7 NNW | 346 5.8 NNE | 19 68.9 63.5
9/6/26 - 0600 67.6 56.6 68 6.3 NNE | 31 7.4 NNE | 27 68.9 63.5
9/6/26 - 0550 67.1 56.9 70 5.4 NE | 37 6.6 NE | 42 68.9 63.5
9/6/26 - 0540 67.1 57.0 70 3.4 N | 11 4.7 NNE | 22 68.9 63.5
9/6/26 - 0530 66.3 57.4 73 3.0 NNE | 31 4.7 ENE | 59 68.9 63.5
9/6/26 - 0520 65.8 57.4 74 4.6 NE | 53 5.9 NE | 46 68.9 63.5
9/6/26 - 0510 66.3 56.6 71 2.2 NNE | 16 4.8 NE | 56 68.9 63.5
9/6/26 - 0500 65.8 56.9 73 2.8 ENE | 59 4.8 ENE | 61 68.9 63.5
9/6/26 - 0450 65.3 57.3 75 3.2 NE | 49 4.8 ENE | 59 68.9 63.5
9/6/26 - 0440 64.5 58.0 79 3.6 NE | 53 6.3 ENE | 67 68.9 63.5
9/6/26 - 0430 64.4 58.0 80 4.6 NE | 42 7.7 NNE | 25 68.9 63.5
9/6/26 - 0420 64.4 57.8 79 6.1 NNE | 12 7.6 NNE | 16 68.9 63.5
9/6/26 - 0410 64.6 58.8 81 8.4 NNW | 329 10.9 NW | 319 68.9 63.5
9/6/26 - 0400 63.9 55.6 74 8.8 NW | 304 11.5 W | 279 68.9 63.5
9/6/26 - 0350 65.0 54.5 69 9.1 W | 280 11.4 W | 280 68.9 64.6
9/6/26 - 0340 66.9 53.5 62 8.5 W | 277 9.8 W | 277 68.9 66.0
9/6/26 - 0330 67.7 56.3 67 3.5 NW | 306 5.8 W | 279 68.9 66.6
9/6/26 - 0320 67.6 57.1 69 2.6 N | 352 3.4 NNW | 334 68.9 66.6
9/6/26 - 0310 67.2 56.0 67 3.4 N | 4 3.9 N | 354 68.9 66.6
9/6/26 - 0300 67.1 55.5 66 3.4 NNE | 14 4.0 N | 0 68.9 66.6
9/6/26 - 0250 66.9 52.7 60 3.4 NNE | 17 4.5 NNE | 24 68.9 66.6
9/6/26 - 0240 67.5 53.0 60 3.2 N | 8 3.9 N | 354 68.9 67.3
9/6/26 - 0230 67.9 53.7 60 2.8 N | 359 4.2 N | 7 68.9 67.6
9/6/26 - 0220 68.2 52.7 58 1.4 NE | 51 2.6 N | 5 68.9 67.7
9/6/26 - 0210 68.7 52.3 56 1.0 SE | 143 2.2 SE | 140 68.9 68.1
9/6/26 - 0200 68.8 52.3 56 2.8 SE | 142 3.3 SE | 139 68.9 68.1
9/6/26 - 0150 68.1 53.0 58 2.8 SSE | 153 4.1 SSE | 168 68.3 68.1
9/6/26 - 0140 68.2 53.2 59 2.6 S | 175 4.2 S | 172 68.3 68.1
9/6/26 - 0130 68.2 52.9 58 2.6 S | 171 3.3 SSE | 168 68.3 68.1
9/6/26 - 0120 68.1 52.7 58 2.3 S | 174 3.1 S | 172 68.3 68.1
9/6/26 - 0110 68.3 52.4 57 2.7 SSE | 153 3.4 SSE | 158 68.3 68.1
9/6/26 - 0100 68.1 52.3 57 2.5 SSE | 154 3.2 SSE | 164 77.6 63.6
9/6/26 - 0050 68.2 52.5 57 3.0 S | 179 4.1 S | 173 77.6 63.6
9/6/26 - 0040 68.5 51.2 54 3.8 SW | 218 4.7 SW | 216 77.6 63.6
9/6/26 - 0030 68.7 51.6 54 2.7 SW | 219 3.4 SW | 217 77.6 63.6
9/6/26 - 0020 69.1 52.3 55 2.6 WNW | 292 3.2 NW | 317 77.6 63.6
9/6/26 - 0010 69.0 52.3 55 3.5 NW | 310 3.9 NW | 317 77.6 63.6
9/6/26 - 0000 68.7 52.8 57 4.1 WNW | 292 5.0 WNW | 284 77.6 63.6
9/5/26 - 2350 68.5 51.7 55 3.8 NW | 322 4.7 WNW | 286 77.6 63.6
9/5/26 - 2340 68.6 51.5 54 3.9 NW | 323 4.7 NW | 312 77.6 63.6
9/5/26 - 2330 68.4 51.3 54 3.7 NNW | 336 4.8 NW | 322 77.6 63.6
9/5/26 - 2320 68.3 51.2 54 2.8 N | 2 4.0 NNW | 341 77.6 63.6
9/5/26 - 2310 68.0 51.7 56 3.1 NE | 34 3.9 NE | 38 77.6 63.6
9/5/26 - 2300 68.0 51.6 56 1.7 ENE | 69 2.6 NNE | 29 77.6 63.6
9/5/26 - 2250 68.0 51.6 56 3.0 NE | 56 4.7 ENE | 57 77.6 63.6
9/5/26 - 2240 68.4 51.1 54 1.0 E | 98 2.8 NE | 43 77.6 63.6
9/5/26 - 2230 68.6 51.0 53 3.8 W | 267 5.4 W | 273 77.6 63.6
9/5/26 - 2220 68.9 51.0 53 5.5 WNW | 299 7.0 NW | 317 77.6 63.6
9/5/26 - 2210 69.1 50.9 52 6.9 NW | 307 8.4 WNW | 303 77.6 63.6
9/5/26 - 2200 69.0 51.0 53 6.4 NW | 304 7.9 WNW | 298 77.6 63.6
9/5/26 - 2150 68.9 51.4 54 6.5 WNW | 294 8.1 WNW | 282 77.6 63.6
9/5/26 - 2140 68.6 51.9 55 6.3 W | 269 7.7 W | 263 77.6 63.6
9/5/26 - 2130 68.5 52.4 56 5.6 W | 273 8.8 W | 270 77.6 63.6
9/5/26 - 2120 68.7 52.4 56 7.0 W | 267 10.1 W | 261 77.6 63.6
9/5/26 - 2110 68.6 52.5 56 6.2 W | 273 8.5 W | 276 77.6 63.6
9/5/26 - 2100 68.6 52.5 56 6.7 WSW | 253 8.9 W | 259 77.6 63.6
9/5/26 - 2050 68.4 53.0 58 6.1 WSW | 247 7.2 WSW | 239 77.6 63.6
9/5/26 - 2040 68.4 53.2 58 6.0 WSW | 244 8.1 SW | 235 77.6 63.6
9/5/26 - 2030 68.7 53.0 57 7.6 SW | 235 9.4 WSW | 238 77.6 63.6
9/5/26 - 2020 68.6 53.0 57 6.8 SW | 232 9.1 SW | 230 77.6 63.6
9/5/26 - 2010 68.7 52.8 57 5.9 WSW | 237 9.2 SW | 231 77.6 63.6
9/5/26 - 2000 68.8 51.7 54 5.2 WSW | 240 6.6 WSW | 237 77.6 63.6
9/5/26 - 1950 69.0 51.4 53 6.3 SW | 230 7.5 SW | 226 77.6 63.6
9/5/26 - 1940 69.3 51.4 53 7.4 SW | 235 9.6 WSW | 239 77.6 63.6
9/5/26 - 1930 69.7 51.4 52 8.5 WSW | 241 11.0 WSW | 240 77.6 63.6
9/5/26 - 1920 70.1 50.9 50 9.4 WSW | 239 12.0 WSW | 244 77.6 63.6
9/5/26 - 1910 70.6 50.7 49 11.5 WSW | 240 14.2 WSW | 242 77.6 63.6
9/5/26 - 1900 71.2 50.8 48 12.7 SW | 236 15.8 SW | 235 77.6 63.6
9/5/26 - 1850 72.0 50.7 47 12.3 WSW | 237 15.9 SW | 233 77.6 63.6
9/5/26 - 1840 72.4 50.9 47 12.1 SW | 233 18.2 SW | 228 77.6 63.6
9/5/26 - 1830 72.8 51.0 46 12.9 WSW | 237 16.8 WSW | 244 77.6 63.6
9/5/26 - 1820 73.7 51.0 45 11.0 SW | 235 17.1 WSW | 247 77.6 63.6
9/5/26 - 1810 73.6 50.7 45 14.1 SW | 236 19.4 SW | 236 77.6 63.6
9/5/26 - 1800 74.2 51.1 44 13.6 SW | 236 21.2 SW | 230 77.6 63.6
9/5/26 - 1750 73.6 50.9 45 13.8 SW | 236 20.2 WSW | 243 77.6 63.6
9/5/26 - 1740 74.0 50.8 44 13.3 SW | 234 21.0 WSW | 242 77.6 63.6
9/5/26 - 1730 74.5 51.0 44 11.0 SW | 233 17.2 SW | 228 77.6 63.6
9/5/26 - 1720 73.7 50.6 44 12.7 WSW | 237 18.1 SW | 220 77.6 63.6
9/5/26 - 1710 74.0 50.7 44 14.0 SW | 235 19.8 WSW | 250 77.6 63.6
9/5/26 - 1700 74.0 50.9 44 13.8 SW | 235 20.9 WSW | 247 77.6 63.6
9/5/26 - 1650 74.4 51.5 45 14.0 SW | 233 21.7 WSW | 242 77.6 63.6
9/5/26 - 1640 75.8 51.3 42 12.6 SW | 232 21.1 WSW | 242 77.6 63.6
9/5/26 - 1630 74.8 51.2 44 12.2 SW | 233 20.8 SSW | 210 77.4 63.6
9/5/26 - 1620 74.2 51.3 45 15.1 SW | 233 22.6 SW | 227 77.4 63.6
9/5/26 - 1610 74.0 50.9 44 14.5 SW | 233 23.7 SW | 236 77.4 63.6
9/5/26 - 1600 73.9 50.3 43 14.7 WSW | 237 22.1 SSW | 212 77.4 63.6
9/5/26 - 1550 74.0 49.6 42 15.7 SW | 235 23.6 WSW | 243 77.4 63.6
9/5/26 - 1540 74.6 49.4 41 15.0 WSW | 239 22.7 SSW | 211 77.4 63.6
9/5/26 - 1530 74.4 48.7 40 13.8 SW | 234 23.4 SSW | 202 77.4 63.6
9/5/26 - 1520 74.3 48.0 39 13.7 SW | 236 22.6 WSW | 243 77.4 63.6
9/5/26 - 1510 74.3 47.4 38 15.4 WSW | 237 22.6 SW | 228 77.4 63.6
9/5/26 - 1500 74.2 46.6 38 16.1 WSW | 244 25.1 WSW | 251 77.4 63.6
9/5/26 - 1450 73.8 47.9 40 14.8 WSW | 239 22.2 WSW | 244 77.4 63.6
9/5/26 - 1440 73.5 48.6 41 18.4 WSW | 241 24.7 SW | 231 77.4 63.6
9/5/26 - 1430 74.6 48.6 40 16.0 SW | 236 23.7 SW | 226 77.4 63.6
9/5/26 - 1420 74.8 49.6 41 14.7 SW | 232 23.4 SW | 223 77.4 63.6
9/5/26 - 1410 75.2 50.2 41 14.0 SW | 231 24.0 SW | 231 77.4 63.6
9/5/26 - 1400 74.7 50.0 42 16.2 SW | 236 25.7 WSW | 239 77.4 63.6
9/5/26 - 1350 74.6 50.3 42 15.5 SW | 222 25.4 SW | 233 77.4 63.6
9/5/26 - 1340 75.0 49.0 40 13.6 SW | 228 23.4 SW | 223 77.4 63.6
9/5/26 - 1330 75.3 48.2 38 14.4 SW | 231 24.5 SSW | 200 77.4 63.6
9/5/26 - 1320 74.8 47.2 37 13.8 SW | 224 23.4 SW | 225 76.9 63.6
9/5/26 - 1310 75.8 48.3 38 13.0 SW | 225 23.9 SW | 223 76.9 63.6
9/5/26 - 1300 74.7 49.4 41 10.0 SW | 219 18.3 SSW | 205 76.4 63.6
9/5/26 - 1250 75.1 47.8 38 14.5 SW | 232 22.5 SW | 235 76.4 63.6
9/5/26 - 1240 73.9 48.6 41 11.6 SW | 221 23.4 WSW | 247 75.8 63.6
9/5/26 - 1230 73.5 49.2 42 13.8 SW | 232 23.8 WSW | 240 75.8 63.6
9/5/26 - 1220 73.2 49.0 42 13.0 WSW | 239 19.6 SW | 221 75.8 63.6
9/5/26 - 1210 74.0 47.4 39 9.9 SW | 218 17.4 SW | 218 75.8 63.6
9/5/26 - 1200 72.8 48.1 42 12.2 SW | 227 21.8 SW | 231 75.8 63.6
9/5/26 - 1150 72.8 49.4 44 15.0 WSW | 237 20.5 SW | 234 75.8 63.6
9/5/26 - 1140 73.8 47.2 39 11.6 SW | 236 20.2 WSW | 244 75.8 63.6
9/5/26 - 1130 74.4 45.0 35 7.8 SW | 229 14.9 WSW | 244 75.8 63.6
9/5/26 - 1120 72.7 41.1 32 10.8 SW | 233 17.2 SW | 236 74.7 63.6
9/5/26 - 1110 73.2 43.1 34 8.3 SSW | 200 18.4 SSW | 211 74.7 63.6
9/5/26 - 1100 73.1 42.5 33 9.3 SSW | 203 15.6 SSW | 208 74.7 63.6
9/5/26 - 1050 72.1 37.8 29 8.4 SW | 218 15.9 SSW | 211 74.7 63.6
9/5/26 - 1040 72.4 35.6 26 10.3 SW | 224 17.8 SW | 220 74.7 63.6
9/5/26 - 1030 72.7 30.5 21 7.8 SW | 220 14.2 SSW | 196 74.7 63.6
9/5/26 - 1020 72.3 28.7 20 9.2 SW | 233 14.5 SW | 226 74.7 63.6
9/5/26 - 1010 73.4 28.7 19 7.2 SSW | 204 12.7 SSW | 194 74.7 63.6
9/5/26 - 1000 71.9 28.0 20 6.0 SW | 221 12.5 SSW | 201 73.5 63.6
9/5/26 - 0950 72.6 19.5 13 6.4 S | 185 11.6 SSE | 168 73.5 63.6
9/5/26 - 0940 72.3 22.8 16 5.1 SSW | 196 8.9 SSW | 208 72.8 63.6
9/5/26 - 0930 71.2 23.7 17 5.8 SSW | 198 11.0 S | 173 72.3 63.6
9/5/26 - 0920 71.5 24.1 17 5.2 S | 171 11.1 S | 171 72.3 63.6
9/5/26 - 0910 70.3 24.7 18 5.1 S | 188 8.9 S | 174 71.4 63.6
9/5/26 - 0900 69.7 25.8 19 5.3 S | 170 11.9 SSE | 150 70.7 63.6
9/5/26 - 0850 69.5 26.2 20 5.3 SSE | 149 8.8 SSE | 159 70.7 63.6
9/5/26 - 0840 68.5 27.0 21 5.6 SE | 132 9.0 SE | 138 69.5 63.6
9/5/26 - 0830 68.3 27.9 22 4.9 SE | 136 9.0 SSE | 164 69.5 63.6
9/5/26 - 0820 67.9 28.8 23 5.5 SE | 145 8.6 SE | 139 69.5 63.6
Max 75.8 58.8 81 18.4 - 25.7 - 77.6 68.1
Avg 70.3 49.2 50 8.0 - 12.1 - - -
Min 63.9 19.5 13 1.0 - 2.2 - 68.3 63.5